When you browse on this site, cookies collect data to enhance your experience and personalize the content and advertising you see.
Visit our Privacy Policy to learn more. By continuing to use the site, you agree to this use of cookies and data.
  • In Switzerland
  • List of Countries
  • For 7 days
  • Water Temperature
  • Satellite Maps
  • Weather Map
  • Weather Widgets
  • user-avatar
    Login

    Hourly Weather Hruschevo

    Today, 18 November, Sunday

    Time Temperature Precipitation Wind Pressure Humidity
    00:00 -2°C° 0 mm 5 mps 757 mmHg 47%
    01:00 -2°C° 0 mm 5 mps 756 mmHg 50%
    02:00 -2°C° 0 mm 5 mps 756 mmHg 53%
    03:00 -2°C° 0 mm 5 mps 755 mmHg 57%
    04:00 -2°C° 0 mm 5 mps 755 mmHg 59%
    05:00 -2°C° 0 mm 4 mps 754 mmHg 62%
    06:00 -3°C° 0 mm 4 mps 754 mmHg 65%
    07:00 -2°C° 0 mm 4 mps 754 mmHg 68%
    08:00 -2°C° 0 mm 4 mps 754 mmHg 72%
    09:00 -2°C° 0 mm 4 mps 753 mmHg 76%
    10:00 -1°C° 0 mm 3 mps 754 mmHg 76%
    11:00 -1°C° 0 mm 3 mps 754 mmHg 76%
    12:00 0°C° 0 mm 3 mps 754 mmHg 77%
    13:00 0°C° 0 mm 3 mps 754 mmHg 78%
    14:00 +1°C° 0 mm 2 mps 754 mmHg 79%
    15:00 +1°C° 0 mm 2 mps 754 mmHg 81%
    16:00 -1°C° 0 mm 2 mps 754 mmHg 83%
    17:00 -1°C° 0 mm 2 mps 754 mmHg 85%
    18:00 -1°C° 0 mm 2 mps 754 mmHg 88%
    19:00 -1°C° 0 mm 2 mps 755 mmHg 88%
    20:00 +1°C° 0 mm 1 mps 755 mmHg 89%
    21:00 +1°C° 0 mm 1 mps 755 mmHg 90%
    22:00 +1°C° 0 mm 1 mps 755 mmHg 91%
    23:00 0°C° 0 mm 1 mps 756 mmHg 91%

    Tomorrow, 19 November, Monday

    Time Temperature Precipitation Wind Pressure Humidity
    00:00 0°C° 0 mm 1 mps 756 mmHg 92%
    01:00 0°C° 0 mm 1 mps 756 mmHg 92%
    02:00 0°C° 0 mm 1 mps 756 mmHg 92%
    03:00 0°C° 0 mm 1 mps 756 mmHg 92%
    04:00 0°C° 0 mm 1 mps 757 mmHg 93%
    05:00 -1°C° 0 mm 0 mps 757 mmHg 93%
    06:00 -1°C° 0 mm 0 mps 757 mmHg 93%
    07:00 -1°C° 0 mm 0 mps 757 mmHg 93%
    08:00 0°C° 0 mm 0 mps 758 mmHg 93%
    09:00 0°C° 0 mm 0 mps 758 mmHg 93%
    10:00 0°C° 0 mm 0 mps 758 mmHg 90%
    11:00 +1°C° 0 mm 0 mps 759 mmHg 87%
    12:00 +1°C° 0 mm 0 mps 759 mmHg 84%
    13:00 +2°C° 0 mm 1 mps 759 mmHg 85%
    14:00 +2°C° 0 mm 1 mps 759 mmHg 86%
    15:00 +2°C° 0 mm 1 mps 760 mmHg 88%
    16:00 +1°C° 0 mm 1 mps 760 mmHg 90%
    17:00 +1°C° 0 mm 1 mps 760 mmHg 92%
    18:00 -2°C° 0 mm 2 mps 760 mmHg 94%
    19:00 -2°C° 0 mm 2 mps 760 mmHg 94%
    20:00 -2°C° 0 mm 2 mps 760 mmHg 95%
    21:00 -2°C° 0 mm 2 mps 760 mmHg 95%
    22:00 -2°C° 0 mm 2 mps 760 mmHg 95%
    23:00 -2°C° 0 mm 2 mps 760 mmHg 95%

    Day after tomorrow, 20 November, Tuesday

    Time Temperature Precipitation Wind Pressure Humidity
    00:00 -2°C° 0 mm 2 mps 761 mmHg 95%
    01:00 -2°C° 0 mm 2 mps 761 mmHg 95%
    02:00 -2°C° 0 mm 2 mps 761 mmHg 95%
    03:00 -2°C° 0 mm 2 mps 761 mmHg 95%
    04:00 -2°C° 0 mm 2 mps 760 mmHg 95%
    05:00 -2°C° 0 mm 2 mps 760 mmHg 94%
    06:00 -2°C° 0 mm 2 mps 760 mmHg 94%
    07:00 -2°C° 0 mm 2 mps 760 mmHg 92%
    08:00 -2°C° 0 mm 2 mps 760 mmHg 91%
    09:00 -2°C° 0 mm 2 mps 760 mmHg 90%
    10:00 -1°C° 0 mm 2 mps 760 mmHg 86%
    11:00 -1°C° 0 mm 2 mps 759 mmHg 83%
    12:00 -1°C° 0 mm 2 mps 759 mmHg 79%
    13:00 -1°C° 0 mm 2 mps 759 mmHg 79%
    14:00 -1°C° 0 mm 2 mps 759 mmHg 79%
    15:00 +1°C° 0 mm 1 mps 758 mmHg 79%
    16:00 0°C° 0 mm 1 mps 758 mmHg 82%
    17:00 0°C° 0 mm 1 mps 758 mmHg 85%
    18:00 -1°C° 0 mm 1 mps 758 mmHg 88%
    19:00 -1°C° 0 mm 1 mps 758 mmHg 87%
    20:00 -1°C° 0 mm 1 mps 757 mmHg 87%
    21:00 -1°C° 0 mm 1 mps 757 mmHg 86%
    22:00 -3°C° 0 mm 2 mps 757 mmHg 85%
    23:00 -2°C° 0 mm 2 mps 757 mmHg 83%

    21 November, Wednesday

    Time Temperature Precipitation Wind Pressure Humidity
    00:00 -2°C° 0 mm 2 mps 757 mmHg 82%
    01:00 -2°C° 0 mm 2 mps 757 mmHg 81%
    02:00 -3°C° 0 mm 2 mps 757 mmHg 80%
    03:00 -3°C° 0 mm 2 mps 757 mmHg 79%
    04:00 -3°C° 0 mm 2 mps 756 mmHg 78%
    05:00 -4°C° 0 mm 3 mps 756 mmHg 77%
    06:00 -4°C° 0 mm 3 mps 756 mmHg 76%
    07:00 -4°C° 0 mm 3 mps 756 mmHg 75%
    08:00 -4°C° 0 mm 3 mps 756 mmHg 74%
    09:00 -2°C° 0 mm 3 mps 756 mmHg 73%
    10:00 -2°C° 0 mm 3 mps 756 mmHg 71%
    11:00 -3°C° 0 mm 4 mps 756 mmHg 70%
    12:00 -3°C° 0 mm 4 mps 756 mmHg 68%
    13:00 -3°C° 0 mm 4 mps 756 mmHg 70%
    14:00 -2°C° 0 mm 3 mps 756 mmHg 71%
    15:00 -2°C° 0 mm 3 mps 756 mmHg 73%
    16:00 -2°C° 0 mm 3 mps 756 mmHg 76%
    17:00 -2°C° 0 mm 3 mps 756 mmHg 78%
    18:00 -2°C° 0 mm 3 mps 756 mmHg 81%
    19:00 -2°C° 0 mm 3 mps 756 mmHg 82%
    20:00 -2°C° 0 mm 3 mps 756 mmHg 83%
    21:00 -2°C° 0 mm 3 mps 756 mmHg 84%
    22:00 -2°C° 0 mm 3 mps 756 mmHg 82%
    23:00 -2°C° 0 mm 2 mps 756 mmHg 80%

    22 November, Thursday

    Time Temperature Precipitation Wind Pressure Humidity
    00:00 -2°C° 0 mm 2 mps 756 mmHg 78%
    01:00 -3°C° 0 mm 2 mps 756 mmHg 79%
    02:00 -3°C° 0 mm 2 mps 756 mmHg 81%
    03:00 -3°C° 0 mm 2 mps 756 mmHg 82%
    04:00 -5°C° 0 mm 3 mps 756 mmHg 83%
    05:00 -5°C° 0 mm 3 mps 755 mmHg 85%
    06:00 -5°C° 0 mm 3 mps 755 mmHg 86%
    07:00 -5°C° 0 mm 3 mps 755 mmHg 87%
    08:00 -5°C° 0 mm 3 mps 755 mmHg 87%
    09:00 -5°C° 0 mm 4 mps 754 mmHg 87%
    10:00 -4°C° 0 mm 4 mps 754 mmHg 81%
    11:00 -5°C° 0 mm 5 mps 754 mmHg 74%
    12:00 -4°C° 0 mm 6 mps 754 mmHg 68%
    13:00 -4°C° 0 mm 6 mps 753 mmHg 70%
    14:00 -4°C° 0 mm 6 mps 753 mmHg 71%
    15:00 -4°C° 0 mm 6 mps 753 mmHg 73%
    16:00 -4°C° 0 mm 6 mps 753 mmHg 74%
    17:00 -4°C° 0 mm 5 mps 753 mmHg 75%
    18:00 -5°C° 0 mm 5 mps 753 mmHg 76%
    19:00 -5°C° 0 mm 5 mps 753 mmHg 78%
    20:00 -5°C° 0 mm 5 mps 753 mmHg 80%
    21:00 -5°C° 0 mm 5 mps 753 mmHg 82%
    22:00 -4°C° 0 mm 4 mps 754 mmHg 83%
    23:00 -4°C° 0 mm 4 mps 754 mmHg 84%

    23 November, Friday

    Time Temperature Precipitation Wind Pressure Humidity
    00:00 -4°C° 0 mm 4 mps 754 mmHg 86%
    01:00 -4°C° 0 mm 4 mps 755 mmHg 88%
    02:00 -4°C° 0 mm 4 mps 755 mmHg 90%
    03:00 -4°C° 0 mm 4 mps 755 mmHg 92%
    04:00 -4°C° 0 mm 3 mps 755 mmHg 93%
    05:00 -5°C° 0 mm 3 mps 756 mmHg 93%
    06:00 -5°C° 0 mm 3 mps 756 mmHg 94%
    07:00 -5°C° 0 mm 3 mps 756 mmHg 95%
    08:00 -5°C° 0 mm 3 mps 756 mmHg 95%
    09:00 -5°C° 0 mm 3 mps 757 mmHg 96%
    10:00 -4°C° 0 mm 3 mps 757 mmHg 92%
    11:00 -2°C° 0 mm 3 mps 757 mmHg 88%
    12:00 -2°C° 0 mm 3 mps 757 mmHg 84%
    13:00 -1°C° 0 mm 3 mps 757 mmHg 84%
    14:00 -1°C° 0 mm 3 mps 757 mmHg 84%
    15:00 -1°C° 0 mm 3 mps 757 mmHg 84%
    16:00 -2°C° 0 mm 3 mps 757 mmHg 85%
    17:00 -2°C° 0 mm 3 mps 756 mmHg 86%
    18:00 -3°C° 0 mm 4 mps 756 mmHg 87%
    19:00 -3°C° 0 mm 4 mps 756 mmHg 88%
    20:00 -3°C° 0 mm 4 mps 756 mmHg 90%
    21:00 -3°C° 0 mm 4 mps 755 mmHg 91%
    22:00 -4°C° 0 mm 4 mps 755 mmHg 91%
    23:00 -5°C° 0 mm 5 mps 755 mmHg 91%
    Show more